sat.trackr.live / text

‹ back to catalog

STARLINK-31170

NORAD 58801 · 2024-012Q

PAYLOAD ACTIVE UNKNOWN

§ Identity

Operator
Country
US
Launch date
2024-01-15
Launch site
AFETR
Launch vehicle
Mass (kg)
RCS (m²)

Purposes: comms

External: N2YO · Heavens-Above · Gunter

§ Orbital elements

Epoch: 2026-05-24T14:13:03.539712Z

Period
94.27 min
Inclination
43.0041°
Eccentricity
0.0001296
Mean motion
15.27573339 rev/d
Perigee alt
482.2 km
Apogee alt
484.0 km
Semi-major
6,861.2 km
B*
4.5926e-5
RAAN
96.6439°
Arg perigee
277.5410°
Mean anomaly
82.5295°
Rev number
13,284

§ Raw data

STARLINK-311701 58801U 24012Q   26144.59240208  .00001002  00000+0  45926-4 0  99902 58801  43.0041  96.6439 0001296 277.5410  82.5295 15.27573339132841

JSON: /api/v1/satellites/58801 · /tle

For live sub-satellite position, see the globe view (requires WebGL).

§ Visibility from observer

Set your observer location to see the next 7 days of passes ≥ 10°. The values pass through the URL so the page stays shareable.

No JS? Fill the form by hand. The geolocation button needs JavaScript.